Theta_e
324 325 326 331 334 328 328 330 326 325 327 325 325 326 331 338 328 324 348 357 337 334 344 342 350 355 350 348 343 339 341 341 341 342 341 342 343 342 343 343 343 344 343 344 345 345 346 347 347 350 350 352 354 354 355 356 357 357 356 355 354 353 351 346 340 336 339 345 347 347 344 336 326 322 322 322 321 321 321 320 318 319 321 322 324 324 324
325 324 323 328 329 327 328 328 328 328 326 325 325 326 331 335 330 331 347 352 341 336 340 341 340 339 337 337 336 338 340 341 341 342 341 343 343 343 343 343 343 344 343 343 343 344 346 346 347 348 349 351 353 353 355 356 357 357 356 356 355 355 354 353 350 346 344 343 345 347 344 336 328 324 323 325 323 320 321 322 320 321 322 323 325 324 324
323 322 324 326 323 325 326 324 329 329 325 326 324 324 330 332 330 333 341 343 341 337 340 341 333 329 334 337 336 337 339 340 341 341 342 343 343 343 343 343 343 343 343 344 343 344 345 344 345 347 348 350 351 353 355 356 356 357 356 357 356 356 356 355 352 349 346 344 345 347 345 340 332 326 325 325 322 321 324 323 321 322 323 323 323 322 323
323 324 324 324 323 324 322 320 326 326 324 327 325 326 335 334 330 335 338 335 336 338 342 340 333 333 340 339 335 334 336 339 341 341 342 343 343 343 343 343 344 343 343 343 343 343 343 343 345 346 347 349 350 351 354 354 356 357 357 357 357 356 356 355 353 351 349 347 347 345 345 344 337 329 325 323 321 324 329 329 325 323 323 323 322 322 322
323 325 324 324 323 320 319 323 324 323 326 329 326 332 342 338 333 335 333 330 336 343 343 340 340 344 345 340 335 334 336 338 341 342 344 343 342 344 343 342 343 343 343 342 341 342 343 343 345 346 347 348 348 349 351 353 355 356 357 357 357 356 355 354 354 352 350 349 348 344 342 342 337 329 325 322 322 325 326 326 327 325 323 322 322 321 321
320 325 326 325 321 319 327 338 333 326 326 326 327 337 344 341 339 342 339 337 345 350 345 342 345 344 339 336 333 333 335 337 339 342 343 342 343 343 342 342 343 343 343 342 343 344 344 344 345 345 345 344 344 346 349 351 353 354 356 356 356 356 355 354 354 352 351 349 347 342 338 335 331 327 322 321 325 324 319 320 325 325 322 322 321 320 320
324 328 325 321 322 327 338 342 336 330 327 328 337 344 342 341 342 348 351 347 349 354 347 337 335 334 332 333 333 334 336 336 337 340 340 341 343 342 342 343 342 343 343 344 344 343 341 340 338 337 336 336 338 342 345 348 350 352 354 355 356 356 355 354 354 352 351 348 343 340 337 334 330 326 322 323 324 322 319 320 321 321 321 321 321 320 320
327 325 320 321 328 336 339 337 337 337 333 333 340 338 336 339 338 341 351 352 348 349 341 330 329 331 332 334 335 335 337 337 336 339 339 340 341 340 341 341 341 342 342 341 340 336 333 332 330 329 330 330 332 335 340 345 348 351 353 354 354 355 354 354 354 352 350 348 345 341 338 334 331 326 324 325 324 322 322 321 319 320 322 322 322 321 321
331 329 323 325 330 333 336 338 338 337 335 337 342 339 334 337 336 335 345 351 346 342 335 329 331 334 336 341 340 336 337 339 339 339 339 340 341 341 341 341 339 338 337 336 335 333 331 331 330 331 332 331 332 334 337 342 346 348 351 352 352 354 353 353 353 352 351 349 348 345 339 334 332 329 327 325 324 323 323 322 320 321 322 322 324 324 322
337 336 329 329 330 330 339 345 337 332 332 333 340 343 337 335 335 333 339 345 343 340 335 331 332 338 347 354 347 337 336 339 340 341 342 342 342 341 339 338 336 335 335 334 335 335 335 334 333 333 334 333 333 334 334 336 338 340 342 346 349 351 352 352 352 351 350 349 348 346 342 336 331 329 328 325 323 322 323 322 321 323 324 328 331 330 325
337 335 333 335 334 334 344 349 338 331 331 330 334 339 336 336 336 331 333 339 338 335 333 331 335 346 354 351 342 337 338 339 339 343 344 342 340 338 336 336 336 335 336 335 336 336 335 334 333 332 332 330 330 330 330 331 332 333 336 342 347 349 350 350 349 348 348 348 346 344 342 337 332 329 329 327 324 323 323 323 324 327 330 334 336 335 331
339 340 339 337 336 337 340 341 335 330 329 329 330 333 335 337 335 329 331 336 334 332 332 333 337 345 346 342 337 338 341 340 340 343 342 338 336 337 337 338 337 337 337 337 337 336 334 333 332 331 331 331 330 329 330 332 332 333 337 342 345 348 348 348 347 346 346 346 345 342 339 334 332 331 330 327 325 323 324 326 329 330 333 336 338 338 337
339 343 340 333 335 339 337 334 331 329 331 332 331 333 335 334 332 331 331 332 332 331 332 334 336 337 336 335 335 336 339 340 341 342 341 338 339 338 338 339 338 338 339 337 336 336 335 334 333 332 333 333 331 331 333 334 335 337 340 343 344 347 348 346 345 345 345 344 344 341 336 333 331 330 328 325 325 327 330 332 333 333 334 337 338 338 337
336 341 344 337 337 338 331 328 329 331 339 344 337 333 334 332 332 334 333 332 333 334 333 334 334 334 334 334 334 333 334 335 336 339 339 338 338 338 338 338 338 338 339 339 338 337 337 336 335 335 335 335 334 335 336 336 338 339 340 342 344 345 346 345 344 344 343 343 343 339 336 332 330 328 326 325 327 330 332 334 335 335 337 338 337 334 333
337 343 347 342 338 334 328 332 340 340 341 342 335 331 332 331 331 331 331 332 333 332 333 333 333 333 333 333 333 333 333 332 333 335 335 333 333 334 335 336 337 337 338 339 339 339 339 339 338 338 337 337 337 338 338 338 339 340 341 343 344 344 344 344 344 343 342 342 341 339 334 329 327 326 325 326 328 330 331 333 334 335 336 336 335 333 332
338 343 344 339 336 331 327 333 341 338 334 333 331 330 329 328 327 327 327 328 328 328 329 329 328 330 329 328 330 332 332 332 332 332 332 332 331 332 332 332 331 331 332 333 335 337 339 340 340 340 340 340 340 340 340 341 341 342 343 343 343 343 343 343 342 342 341 341 339 336 330 326 326 326 325 327 328 330 331 332 332 333 333 334 333 334 335
333 336 337 334 331 329 327 329 332 331 330 329 328 327 326 326 326 326 325 326 326 325 326 325 325 326 325 325 327 329 329 329 329 329 331 330 330 330 330 330 330 329 329 330 331 332 335 338 342 343 342 342 341 341 342 343 343 343 344 344 344 343 342 342 341 341 340 339 336 331 326 327 328 328 329 331 331 331 331 330 330 331 331 332 333 335 334
332 332 332 330 328 327 327 328 327 327 328 327 326 326 327 326 326 326 326 326 327 327 327 326 326 326 325 326 326 326 327 328 327 328 328 328 327 328 328 329 330 330 330 331 331 330 334 339 343 344 344 344 344 344 344 343 343 344 344 344 343 342 341 340 340 339 338 338 335 329 327 330 333 333 334 334 333 331 329 328 330 330 329 331 334 335 332
338 337 336 332 328 327 327 327 327 327 327 326 326 326 326 325 325 326 326 326 327 327 327 327 326 326 326 327 326 325 326 326 325 326 327 326 326 326 326 327 328 328 328 331 331 330 333 337 338 339 340 342 343 344 343 341 341 343 343 343 342 341 340 340 338 337 337 336 335 333 332 332 332 331 331 331 330 329 328 328 328 327 327 332 334 331 328
339 340 335 329 325 324 325 325 326 326 326 326 327 325 325 324 324 324 324 325 325 325 325 325 325 325 325 326 326 325 325 326 326 326 326 327 327 327 327 327 326 326 326 327 328 326 326 328 329 330 334 338 340 342 343 341 340 342 342 342 341 340 339 338 337 337 336 335 335 335 332 330 328 328 328 326 325 325 326 324 321 323 328 332 330 327 327
335 333 330 326 325 326 325 323 324 325 325 325 325 324 324 324 324 323 323 323 323 323 323 323 323 323 324 325 325 325 325 326 327 326 326 327 327 327 329 328 327 326 325 325 327 326 325 326 328 330 335 339 342 343 341 339 339 341 341 340 340 338 338 337 336 336 335 335 335 332 328 326 328 328 326 324 324 324 324 322 321 324 329 330 327 326 326
334 332 329 327 330 331 327 323 323 324 323 324 324 323 323 323 324 324 323 323 323 323 322 323 322 322 323 323 324 325 326 328 329 329 329 330 328 328 331 331 330 329 327 328 328 328 328 330 333 336 338 341 342 340 337 336 337 338 338 337 336 335 335 334 333 332 333 333 332 329 325 325 328 327 324 323 324 323 321 321 324 327 328 327 326 326 326
334 332 327 325 327 328 325 322 323 323 323 324 324 322 323 323 322 323 323 323 323 323 322 322 323 322 322 322 322 324 325 327 328 331 333 334 333 332 333 334 334 334 333 333 333 332 332 334 336 338 339 340 340 338 336 335 335 334 333 332 332 332 332 330 330 330 330 329 329 326 325 326 326 325 324 324 323 321 321 324 327 327 326 326 326 325 325
328 326 324 323 323 323 322 322 323 323 323 324 323 322 322 323 322 323 323 322 322 323 323 323 322 322 323 322 322 323 324 325 327 329 331 333 334 334 335 336 337 336 336 335 336 336 337 336 336 337 338 338 338 337 335 335 333 332 331 330 329 329 329 328 328 328 328 327 327 326 325 325 325 324 325 324 321 320 322 326 327 326 327 326 325 324 324
323 321 321 321 321 321 321 321 321 320 321 322 321 321 321 321 321 322 322 322 322 322 322 322 322 322 322 322 322 323 323 324 326 328 329 331 332 334 335 336 337 337 336 335 336 337 337 337 337 337 337 337 336 334 333 333 332 330 330 330 328 327 326 326 325 326 326 326 325 325 325 325 325 325 326 324 321 320 323 326 327 327 326 325 325 325 324
321 320 320 320 320 320 320 320 320 320 320 320 320 320 320 320 320 320 320 320 320 320 321 321 321 321 322 321 322 322 322 322 323 324 326 328 329 331 333 335 336 337 337 336 337 337 337 337 337 337 337 336 335 333 332 331 330 329 330 330 328 326 326 327 325 324 324 325 324 325 325 324 324 324 324 323 321 321 324 327 328 327 326 325 325 324 323
320 321 321 321 320 319 320 320 320 319 319 319 319 319 319 319 320 320 319 320 320 320 320 320 320 320 320 320 321 320 320 321 321 322 323 324 325 328 330 332 334 336 336 337 337 336 337 337 337 337 336 335 334 334 332 329 328 329 330 330 329 329 329 328 324 321 320 321 321 321 321 321 320 320 320 321 323 324 326 327 326 326 325 324 324 323 323
322 321 321 321 319 319 319 319 319 319 319 319 319 319 319 320 320 320 320 320 320 320 319 319 319 319 319 319 320 320 320 320 320 320 320 321 323 325 327 331 333 335 335 336 336 336 337 337 335 334 333 332 332 333 331 329 328 329 331 331 330 328 325 323 320 318 319 321 321 322 322 321 321 321 322 324 325 326 326 325 324 324 324 323 323 323 323
321 321 321 321 320 320 319 319 319 318 318 319 319 319 319 320 320 320 320 319 319 319 319 319 319 319 319 319 319 319 319 319 319 318 318 317 320 323 325 328 332 334 335 335 336 336 337 336 332 329 330 332 332 332 332 330 329 330 331 329 326 323 321 320 320 321 323 325 326 327 327 327 327 327 327 327 327 327 326 324 324 324 323 323 323 323 323
319 319 319 319 318 318 318 317 317 317 317 317 317 317 317 317 318 319 319 319 319 319 319 319 318 318 319 318 318 318 318 317 316 316 315 314 316 320 324 326 330 334 335 335 335 336 336 334 330 328 330 331 331 331 332 331 330 330 329 325 321 320 320 320 320 321 322 325 327 328 328 328 329 329 329 329 327 326 325 324 324 323 323 323 323 323 323
317 317 316 316 316 317 317 316 316 316 316 316 316 316 316 316 316 317 318 318 318 318 318 318 319 319 319 318 318 318 318 317 316 315 314 313 314 318 323 325 328 331 334 333 334 336 336 333 330 329 330 330 331 331 332 330 328 326 324 321 320 320 319 319 319 319 319 321 324 326 327 328 328 328 328 327 327 326 325 325 324 323 323 323 323 323 323
316 316 316 316 316 316 316 316 316 316 316 316 316 316 316 317 317 317 318 318 318 318 318 318 318 319 318 319 319 318 318 318 317 315 315 315 314 316 321 323 326 329 332 332 333 335 335 332 330 330 329 329 330 331 330 328 326 323 321 320 320 320 320 320 320 319 319 320 322 325 327 327 327 327 327 326 326 326 325 325 324 324 323 323 323 323 322
316 316 316 316 316 316 316 316 316 317 317 317 317 317 317 317 317 317 318 318 318 318 318 318 318 318 318 318 319 319 319 319 318 317 316 316 316 316 319 323 326 328 331 331 332 333 332 330 329 329 329 329 331 330 329 327 326 323 322 322 322 322 322 322 322 322 322 324 325 327 327 326 326 326 326 325 325 325 324 324 324 323 323 323 323 322 321
317 316 317 317 317 317 317 317 317 317 317 317 318 318 318 318 318 318 318 318 318 318 318 318 318 318 318 318 318 318 318 318 318 318 317 317 317 317 318 322 326 329 330 331 332 331 331 329 328 328 329 330 330 327 326 326 326 324 323 324 325 325 325 325 325 324 325 326 327 327 326 325 325 323 323 323 323 323 323 323 323 322 322 322 322 321 319
317 317 317 318 317 317 318 317 318 318 318 318 318 318 318 318 319 318 318 318 318 317 318 318 318 318 318 318 318 318 318 317 317 318 318 318 318 318 317 322 328 330 330 331 331 331 331 330 330 330 330 329 327 325 324 325 327 326 325 326 328 328 328 327 327 327 327 327 326 325 324 324 322 321 321 322 322 322 322 322 321 321 321 320 320 319 318
318 318 318 318 318 318 318 318 318 318 318 318 318 318 318 318 318 317 317 317 316 317 317 317 317 318 318 318 318 318 317 317 317 317 317 318 320 321 321 324 328 330 330 331 331 331 331 331 331 331 330 327 327 327 326 325 326 328 327 327 328 328 328 328 328 327 326 325 324 323 323 322 321 320 321 321 321 320 321 322 321 320 320 319 319 318 318
318 318 318 318 318 318 318 318 318 317 317 318 318 317 317 317 317 316 316 316 317 317 317 317 317 317 317 317 317 316 316 316 316 316 317 320 324 326 327 328 329 330 330 331 330 330 329 329 329 329 328 326 327 328 327 325 326 326 326 325 326 327 327 326 326 325 324 323 322 322 321 320 320 320 320 320 319 320 321 321 320 320 319 319 318 318 317
316 316 316 316 317 317 317 317 316 316 316 316 317 317 317 317 317 317 317 317 318 318 319 319 319 320 319 318 318 317 316 315 315 318 322 325 327 328 328 329 329 330 330 329 329 328 327 326 325 325 324 324 324 324 324 325 325 325 324 324 324 324 324 323 322 322 321 320 320 320 319 319 318 318 318 318 318 319 319 320 320 319 319 319 318 318 317
315 315 316 316 316 317 317 316 315 315 315 316 317 317 317 318 318 317 318 318 319 320 320 320 321 322 321 320 319 319 318 318 319 322 325 327 327 327 327 327 327 327 327 327 326 325 324 323 322 322 322 324 323 323 323 323 324 323 323 323 322 322 321 320 319 318 318 318 318 318 317 316 315 315 315 315 316 317 318 318 319 318 318 318 317 317 317
315 315 316 315 316 316 316 315 316 316 316 317 318 317 317 317 318 318 318 319 319 321 321 321 321 322 322 322 321 321 322 323 324 325 326 326 326 325 325 324 324 324 324 324 324 324 323 323 323 322 322 323 323 323 323 323 323 322 321 320 319 319 318 317 316 316 316 316 316 316 315 314 313 313 313 314 314 314 315 315 315 316 316 316 316 316 316
316 316 316 316 315 316 316 316 316 316 316 317 318 318 317 317 317 318 319 320 320 320 321 321 321 321 322 323 323 323 323 324 325 325 325 325 324 323 322 322 322 323 323 323 324 324 324 323 323 322 322 321 321 320 321 320 320 319 318 317 317 316 315 314 315 316 316 316 316 315 314 314 313 313 313 313 313 313 313 313 313 314 314 315 315 315 315
316 316 316 316 316 316 316 316 316 316 316 316 317 317 317 317 317 317 318 319 319 320 320 321 321 321 322 323 323 323 323 323 323 323 323 323 323 323 323 323 323 323 324 324 324 323 323 322 321 321 320 319 319 319 318 318 317 317 316 314 312 312 311 311 313 314 314 315 315 315 314 314 313 313 313 313 313 313 313 313 313 313 313 314 315 315 315
316 316 316 316 316 316 317 316 316 317 316 316 316 317 317 317 316 316 317 317 318 319 320 321 321 321 322 322 322 322 322 321 321 322 322 322 322 322 323 324 324 324 324 323 322 322 321 320 320 319 319 318 318 318 317 317 316 315 313 310 308 308 309 309 309 310 310 311 312 312 313 313 313 313 312 312 312 313 313 314 314 314 313 313 313 314 314
316 315 316 316 316 316 317 317 316 316 316 316 316 316 316 317 317 317 317 317 317 318 319 320 320 320 321 322 322 322 322 322 321 321 321 321 321 321 322 323 323 323 322 321 321 320 320 319 319 319 318 318 318 317 316 316 314 312 309 308 308 309 309 309 309 308 308 307 307 308 309 310 310 310 310 309 309 309 310 311 313 313 314 314 313 313 313
316 315 316 316 316 315 316 316 316 316 316 316 316 317 317 317 317 317 317 317 317 317 319 320 320 319 320 321 321 321 322 322 322 321 321 321 321 320 320 321 322 322 321 320 320 319 319 319 319 318 318 318 317 316 315 314 312 309 307 307 308 309 310 310 309 308 308 307 307 306 307 307 307 307 306 306 306 306 306 307 309 310 312 313 313 313 313
315 315 316 315 315 315 315 315 315 316 316 316 317 317 317 317 317 317 317 317 317 317 318 319 319 319 319 320 320 320 321 321 321 321 321 320 320 320 319 320 320 320 320 319 319 319 319 318 318 318 317 317 316 316 315 314 312 310 309 309 309 309 310 311 310 308 308 307 307 307 307 307 306 306 306 305 305 305 304 305 306 307 309 311 313 313 312
315 315 315 315 315 315 315 315 315 315 316 316 317 317 317 316 317 317 317 317 317 317 317 317 318 318 318 318 319 319 320 319 320 320 320 319 319 319 319 318 318 318 318 317 317 317 317 317 317 316 315 315 315 315 314 313 313 313 312 311 310 309 311 311 310 309 309 308 308 307 307 307 306 306 305 305 305 305 304 304 305 307 309 310 312 313 312
315 315 315 315 315 315 315 315 315 314 314 315 315 316 316 316 316 315 315 315 315 315 316 317 317 317 317 318 318 318 318 318 318 319 319 318 318 318 319 318 318 317 316 316 315 316 316 316 315 314 313 313 313 312 312 311 311 311 311 311 310 310 310 311 311 310 310 309 308 308 307 307 306 306 305 305 305 305 304 303 304 306 308 309 309 310 309
315 315 314 315 316 315 314 314 314 313 313 313 313 314 315 315 315 315 315 314 313 313 314 315 316 316 316 316 317 317 317 317 317 318 318 318 318 318 318 318 318 318 317 317 316 316 316 316 315 313 312 311 312 312 311 311 311 310 310 310 309 309 310 311 311 311 311 310 309 308 308 307 307 306 306 306 305 304 303 302 303 304 306 307 307 307 307
314 314 314 314 315 315 315 314 313 313 312 312 312 313 313 313 313 313 313 313 312 311 312 312 313 313 313 314 314 314 315 316 317 317 317 317 317 317 317 318 317 318 317 317 317 317 317 317 316 315 313 312 311 312 312 312 312 312 312 311 311 310 310 310 310 310 310 310 309 309 308 308 308 307 306 306 305 304 303 302 302 302 304 305 305 306 306
312 313 314 314 313 314 315 314 313 312 312 312 312 312 313 312 312 312 312 312 312 311 311 311 311 311 312 312 312 312 312 313 315 316 316 317 317 317 317 317 317 317 317 317 317 317 317 317 317 316 315 314 313 312 312 312 312 312 312 312 312 312 311 311 310 310 310 310 310 309 309 309 308 307 306 305 305 304 303 302 302 302 302 304 304 305 305
312 313 313 313 312 312 313 313 313 312 312 312 312 312 312 312 312 312 312 312 312 311 311 311 311 311 311 311 311 311 311 312 312 313 314 315 315 315 315 316 316 316 316 316 316 317 317 317 317 317 316 316 315 314 314 313 313 312 312 312 312 312 311 311 311 311 311 310 310 309 309 308 307 306 305 304 304 304 303 303 302 302 302 302 303 303 304
Wind_Speed
16 16 14 10 8 7 7 8 10 10 11 13 14 12 10 9 8 9 8 9 10 10 10 11 12 11 12 14 19 22 22 22 24 25 27 30 33 35 37 38 39 39 39 40 39 39 40 40 41 41 42 43 44 45 46 46 47 48 50 52 53 54 55 57 58 59 55 49 47 47 44 38 35 36 33 26 23 23 25 26 26 26 25 23 22 21 19
15 16 14 11 11 9 7 7 8 9 10 13 14 13 12 12 12 10 10 13 13 11 10 12 14 15 15 13 16 19 20 22 24 26 29 33 36 39 39 39 39 40 39 39 38 39 39 39 40 40 41 42 42 43 44 44 45 47 49 50 51 51 53 54 54 51 43 37 41 48 48 44 41 39 34 27 24 25 26 26 27 27 25 24 23 22 20
11 12 11 9 11 12 12 12 10 7 8 8 9 8 6 8 10 8 8 10 10 9 8 9 9 10 11 9 12 19 24 26 27 28 31 36 39 40 40 39 39 39 39 38 38 38 39 39 39 39 39 39 39 40 41 42 43 45 46 47 48 49 51 51 49 47 44 42 46 52 53 50 47 42 36 29 25 26 26 26 27 27 26 26 25 23 21
7 7 10 11 9 9 11 14 13 9 7 7 6 5 5 7 8 4 6 7 9 9 6 5 3 6 9 9 12 19 23 26 29 32 36 40 42 41 39 38 39 38 38 39 39 39 39 38 37 36 35 35 36 37 38 39 41 41 42 43 45 47 47 46 46 48 51 52 53 55 55 53 49 43 38 33 29 27 27 27 27 28 28 28 26 23 22
6 6 9 9 6 4 7 11 12 11 9 7 5 3 6 8 6 6 6 7 9 6 6 6 5 6 8 12 17 22 25 30 34 37 40 42 41 39 38 38 38 38 37 37 38 38 36 35 34 32 31 31 31 32 34 36 37 38 39 41 43 43 43 43 45 49 51 52 54 54 52 52 50 43 38 36 33 30 30 28 27 28 29 28 26 23 22
7 6 5 4 4 6 7 7 8 12 13 12 8 4 3 3 2 3 6 7 5 3 7 9 10 8 8 12 18 21 23 28 35 39 39 38 36 35 35 35 35 34 33 33 33 32 28 25 22 20 20 20 21 24 28 31 33 35 36 38 39 40 40 41 44 46 48 49 48 44 44 47 45 39 36 36 33 31 31 29 28 29 30 29 26 24 23
4 1 6 4 5 8 6 2 1 6 11 13 10 6 4 3 4 4 6 7 7 5 7 8 7 5 2 3 6 9 13 20 28 32 33 31 31 32 31 31 31 29 27 26 23 17 11 7 4 4 5 6 10 14 19 23 26 29 32 34 36 37 39 40 42 44 43 41 37 35 40 43 39 37 39 39 33 30 29 28 27 29 30 28 25 23 23
2 2 5 7 7 5 3 3 5 4 5 9 10 7 3 3 3 3 6 7 7 6 7 6 5 8 9 8 6 2 7 13 17 20 25 26 27 26 24 23 20 17 15 13 12 12 11 9 6 3 2 2 5 8 11 16 20 23 27 30 33 35 37 39 41 41 40 40 38 37 39 41 42 44 46 41 34 30 28 27 28 29 30 29 26 23 22
3 3 3 3 1 1 1 2 2 2 3 5 6 4 1 1 3 1 5 6 6 5 4 8 16 17 13 9 9 9 3 8 11 15 19 19 16 14 11 10 11 14 16 16 17 15 12 9 6 3 2 2 4 6 9 12 15 18 21 24 27 30 33 36 38 39 39 41 42 41 39 42 47 49 44 36 32 30 28 27 27 28 29 28 26 24 22
2 4 2 2 2 3 4 4 3 1 1 3 4 5 2 3 7 6 3 4 2 2 3 10 20 17 10 4 7 10 4 6 10 12 13 13 13 15 18 19 19 20 20 19 17 15 11 8 5 5 5 5 4 4 7 8 10 13 15 18 22 26 29 33 35 36 38 39 41 40 40 46 51 45 34 27 28 28 28 26 25 26 30 30 29 27 24
2 5 4 3 4 4 5 6 5 3 3 3 4 5 2 4 10 10 4 1 2 4 4 5 9 10 7 1 5 8 8 6 8 15 20 21 22 23 22 20 19 19 19 17 16 14 10 6 6 5 4 4 3 3 4 5 7 9 12 16 20 23 26 29 30 32 33 34 35 37 41 48 50 41 30 26 28 29 29 29 28 31 34 32 31 29 27
1 4 3 1 2 2 3 4 5 9 8 0 6 5 1 5 10 12 7 3 3 9 15 14 8 6 6 3 4 13 18 15 15 20 23 22 22 20 18 17 19 19 18 16 15 13 8 5 6 6 5 6 6 6 6 7 8 10 13 16 18 20 24 25 26 28 29 30 32 35 37 34 32 32 30 29 30 30 31 32 32 33 34 33 32 30 28
3 1 4 1 2 2 3 6 10 11 7 4 6 5 4 5 10 13 12 11 10 15 22 19 12 9 11 12 14 22 26 24 22 21 20 19 18 16 15 15 16 16 16 14 12 9 6 6 8 8 7 9 11 11 11 11 11 11 13 15 16 19 21 21 23 25 27 29 32 33 27 18 19 27 32 32 32 30 31 30 30 31 31 30 30 30 31
4 0 3 1 2 1 7 15 14 7 4 4 3 3 1 4 11 17 19 19 21 26 27 24 20 18 22 24 27 30 31 30 28 26 23 22 19 17 15 13 11 10 9 7 5 5 5 6 8 8 8 11 13 14 13 11 10 10 11 13 15 16 18 18 19 22 25 28 30 28 21 16 20 29 33 33 31 28 27 26 28 29 29 27 26 27 31
3 1 3 3 1 4 16 20 10 4 4 7 9 8 7 11 19 24 24 25 29 31 31 30 29 29 31 32 31 30 30 30 30 28 26 24 21 19 17 14 11 8 5 2 1 3 4 5 7 8 10 12 14 14 12 10 9 9 10 12 12 13 14 14 15 18 22 26 27 24 19 19 24 30 31 28 24 22 22 24 25 24 24 25 25 27 30
2 1 1 1 4 8 19 14 3 9 11 17 22 15 10 14 23 27 27 29 32 34 33 34 34 35 35 34 32 30 30 29 28 26 24 23 21 19 18 16 14 11 9 8 7 7 7 7 8 10 12 13 13 12 10 9 9 10 10 10 9 9 10 11 12 15 18 21 23 23 21 21 23 24 23 21 18 18 19 20 21 21 24 24 24 27 30
1 2 1 1 1 7 17 16 16 22 22 22 22 21 19 20 25 29 30 30 32 34 34 35 35 33 31 30 30 29 28 27 26 26 24 22 21 19 18 16 13 11 9 8 8 8 8 8 8 9 11 11 11 10 9 8 9 10 11 9 6 6 8 9 10 14 17 19 21 23 22 18 15 14 14 15 14 14 13 12 15 18 21 23 25 27 26
2 4 6 5 6 12 18 19 19 24 25 21 21 25 26 24 24 27 28 27 26 27 27 28 30 27 24 24 25 24 23 22 21 20 19 18 18 16 16 15 12 10 9 8 8 10 11 11 10 9 9 9 10 10 9 9 11 12 10 8 5 6 8 10 13 16 17 19 22 24 21 15 11 11 11 11 11 11 9 9 10 13 15 21 26 25 22
4 3 5 6 7 11 15 15 14 16 19 20 23 26 25 25 25 24 22 21 20 20 20 21 22 20 17 17 18 17 17 15 13 12 11 10 8 9 11 11 9 7 7 7 8 10 12 12 11 12 12 10 11 12 11 11 12 11 9 7 6 7 9 13 16 17 17 18 22 23 19 14 11 12 12 12 11 9 8 9 11 14 17 22 22 20 17
5 4 3 4 12 14 14 15 13 12 14 17 22 25 25 25 26 24 22 21 19 19 20 19 18 18 17 15 13 13 12 11 9 8 8 6 5 7 9 9 6 2 1 2 3 5 9 10 9 11 13 12 13 14 12 10 10 8 6 6 7 8 11 14 15 15 17 20 21 19 16 16 17 17 16 15 12 8 8 13 15 16 19 20 18 16 15
7 7 8 10 14 13 11 14 16 14 15 18 20 22 22 22 22 23 24 23 22 22 22 19 18 20 19 16 14 12 10 9 7 6 5 3 2 2 3 3 3 3 3 2 3 5 8 8 7 9 12 13 14 13 9 7 6 5 5 7 9 10 12 13 13 15 18 20 20 19 20 22 21 19 19 16 12 12 14 16 15 15 17 18 15 13 13
6 5 8 9 10 5 4 11 16 16 18 20 21 21 21 21 21 21 22 22 20 21 21 19 19 21 20 18 16 14 12 10 7 4 2 1 3 4 3 3 2 3 4 2 2 3 6 5 7 11 13 14 13 9 5 4 3 3 5 6 8 10 11 11 11 13 17 20 22 24 25 21 18 19 20 17 12 12 13 12 11 14 18 17 13 13 14
6 7 10 11 11 10 9 13 18 18 17 18 19 19 19 19 19 20 21 21 20 20 20 19 18 19 18 17 15 14 13 10 7 5 4 4 4 4 5 4 3 5 5 3 2 1 1 3 8 11 13 13 11 7 3 1 1 2 4 4 7 8 9 10 10 12 15 20 24 25 23 19 18 19 18 13 11 10 10 10 13 17 19 18 15 15 16
10 13 17 18 17 16 14 17 22 20 18 18 19 19 19 19 18 18 19 20 20 19 18 18 17 17 16 14 13 13 13 11 9 8 7 6 5 4 5 5 4 4 4 3 2 3 5 7 9 11 12 10 9 7 5 3 4 4 3 2 5 8 10 11 13 13 15 18 21 22 21 19 18 18 16 13 11 11 11 12 15 18 19 19 17 16 16
20 22 24 25 26 23 19 21 25 24 22 21 20 18 18 18 16 15 15 17 17 16 16 16 15 15 14 13 12 12 11 11 11 10 9 9 9 8 7 7 6 5 4 3 4 5 8 10 11 11 11 10 10 10 9 9 8 6 2 1 4 8 10 12 13 15 16 18 18 19 18 17 17 18 18 16 14 12 13 15 18 20 19 18 17 16 16
32 33 31 31 30 26 23 23 23 23 22 21 20 19 17 16 15 14 14 15 14 13 13 13 13 12 11 11 10 10 10 10 10 10 10 11 11 10 9 9 8 7 5 4 5 7 9 10 11 11 11 12 12 12 13 13 12 8 3 2 5 7 7 8 10 12 15 17 17 16 15 15 15 16 17 16 14 14 16 17 19 18 17 17 17 17 17
27 29 29 26 22 21 23 22 20 19 19 18 18 17 15 14 13 13 13 13 12 12 11 10 9 9 8 8 8 8 8 8 8 9 11 12 12 12 12 11 10 8 7 5 5 8 10 11 11 11 13 14 14 14 15 16 15 10 6 6 8 10 10 10 8 8 10 11 11 11 11 11 11 12 13 13 13 15 17 16 15 15 15 16 16 16 16
21 23 25 24 20 20 23 22 18 17 17 15 14 14 12 11 11 10 10 10 10 9 8 8 8 8 8 9 9 9 10 9 9 10 11 13 13 13 12 12 11 9 8 6 5 8 10 12 11 10 12 16 16 16 18 19 18 14 12 10 11 12 11 10 8 6 6 8 9 10 10 11 11 12 12 12 13 14 14 13 13 14 15 15 15 15 14
23 22 24 24 21 18 18 17 16 16 15 13 12 11 9 8 8 9 9 8 8 7 7 7 8 8 9 10 11 13 13 13 12 12 12 13 14 13 13 13 12 10 8 5 5 8 12 16 13 8 10 16 18 17 18 19 19 17 15 12 11 10 9 8 7 6 7 8 9 10 11 11 11 12 13 12 12 13 14 13 14 14 14 14 14 14 13
21 19 20 21 19 16 16 15 14 13 12 11 10 9 9 8 8 8 8 7 7 7 7 8 8 8 9 10 11 13 15 15 16 15 14 14 14 13 12 12 11 9 8 6 7 11 17 21 16 8 6 13 18 19 18 17 17 15 14 13 11 9 8 7 7 7 7 8 8 8 9 9 10 11 11 11 11 13 14 14 13 14 15 15 15 14 13
21 18 18 18 16 15 15 14 12 10 10 9 9 9 9 9 9 8 7 7 7 7 7 8 7 8 8 8 9 11 12 14 15 16 15 14 13 13 12 11 11 10 8 8 8 14 22 23 17 8 5 10 16 19 18 17 15 14 13 11 9 9 9 9 9 9 9 9 9 8 8 8 8 8 9 11 13 15 16 16 17 18 18 17 15 13 12
14 13 14 14 12 12 12 11 9 9 9 8 9 9 10 10 9 9 9 9 9 8 8 8 8 8 8 8 8 9 10 12 14 15 15 13 12 12 12 11 11 10 8 7 10 18 26 22 15 10 9 11 16 18 17 17 17 15 12 10 10 9 10 9 9 10 10 10 9 8 7 7 7 7 9 12 14 17 18 19 19 19 18 17 14 12 12
5 6 9 11 10 10 10 9 8 8 8 8 8 9 8 8 8 9 9 9 10 10 10 10 10 10 9 9 10 10 10 12 13 14 15 14 12 12 11 10 11 11 9 8 11 20 25 21 16 13 12 14 16 17 17 17 17 14 11 11 11 10 10 9 9 9 9 9 8 8 7 7 8 9 11 14 16 17 17 16 16 16 17 16 13 11 11
7 7 9 9 9 9 9 8 8 8 8 8 8 7 7 8 9 9 10 10 11 11 11 11 11 11 10 10 11 11 11 12 13 14 15 15 14 13 13 10 8 8 10 12 15 20 23 22 20 18 16 15 16 17 15 14 14 13 12 12 11 11 10 9 9 9 9 9 8 8 8 9 10 12 14 17 18 18 17 15 15 16 16 14 11 10 10
10 10 9 8 8 8 7 7 8 8 8 8 8 7 7 8 9 10 10 11 11 12 12 12 12 11 11 11 11 11 12 12 12 12 13 13 13 14 13 11 8 6 7 11 16 20 22 23 21 19 16 17 19 19 16 14 13 13 13 12 11 12 11 10 10 11 10 10 9 9 10 11 13 15 16 16 16 16 15 14 13 13 13 12 10 10 9
10 9 9 8 8 7 6 7 7 7 7 8 7 7 7 7 9 10 11 11 12 12 13 13 13 13 13 13 14 14 14 13 12 12 12 12 11 11 10 9 7 5 4 5 10 13 15 16 16 15 17 19 21 20 18 15 13 12 11 10 11 11 11 11 11 11 10 10 10 11 12 13 15 15 14 13 12 12 12 12 11 10 11 11 11 9 9
11 10 10 10 9 9 8 9 9 8 8 7 7 6 7 9 10 11 11 12 12 13 14 14 14 14 14 15 15 15 15 14 13 12 11 10 9 8 7 6 5 4 3 5 9 11 11 12 13 13 13 12 12 12 11 10 9 8 8 8 9 9 9 9 9 8 8 9 11 12 13 13 12 10 8 8 9 9 10 10 10 10 11 12 12 11 10
13 12 12 12 11 11 10 10 10 9 9 8 7 8 10 11 11 11 11 12 13 14 14 14 15 14 14 14 14 14 13 12 11 10 8 8 6 4 4 3 4 5 8 12 15 14 13 12 8 3 3 3 1 2 4 6 7 7 7 7 8 7 7 7 7 8 9 11 12 11 9 8 7 6 5 6 8 9 9 9 9 10 10 11 11 11 10
14 14 13 12 11 11 10 10 10 10 10 10 10 10 11 11 11 11 10 11 13 15 15 16 16 16 15 13 12 12 11 9 8 8 7 5 2 3 5 7 8 9 10 12 12 10 8 5 2 5 5 3 1 1 3 5 7 7 7 7 6 6 7 8 8 9 9 8 8 7 5 4 4 4 5 6 7 7 8 8 9 9 9 9 10 11 10
15 14 13 12 11 11 11 11 11 11 11 11 11 12 13 13 12 12 11 13 15 17 18 19 19 19 18 16 14 13 12 11 10 9 7 3 3 4 5 5 5 4 5 6 7 6 6 4 2 2 4 5 5 5 5 5 5 6 6 6 7 7 7 7 6 5 5 5 5 5 5 5 5 4 4 4 5 5 7 7 8 8 8 8 9 9 9
14 14 13 12 12 12 12 12 12 11 11 10 10 11 13 13 14 13 13 14 16 17 18 19 20 20 19 17 16 14 13 12 12 11 7 3 2 1 1 3 3 3 3 3 3 3 3 2 4 6 6 6 6 6 5 5 5 5 5 5 5 4 4 3 3 3 4 5 6 6 6 7 7 7 6 6 6 6 7 7 8 8 8 9 9 8 8
13 13 12 13 13 13 13 13 13 12 11 10 9 10 11 12 12 13 12 12 13 14 14 15 17 17 16 15 15 14 13 13 12 11 8 6 5 5 5 3 2 3 5 6 6 5 4 5 6 6 5 5 6 6 5 4 4 3 3 3 2 2 1 1 2 3 5 6 7 8 8 9 9 9 9 9 9 9 9 9 9 9 9 10 10 10 9
13 13 12 12 12 13 14 14 14 13 12 11 10 9 9 10 10 10 10 10 10 10 10 11 13 14 13 13 13 13 13 13 13 12 11 9 8 9 8 7 6 7 8 8 7 5 4 3 4 5 6 6 6 5 4 3 2 1 1 2 2 2 1 0 2 3 5 7 8 9 9 9 10 10 10 11 11 12 12 13 13 12 12 12 12 12 11
12 12 12 11 12 12 13 13 13 14 13 12 11 10 10 9 9 9 9 8 8 8 8 9 11 11 11 11 11 11 11 11 11 10 10 9 8 8 7 6 5 5 4 4 3 3 3 3 3 4 4 4 4 3 1 0 1 1 2 2 2 1 0 1 1 2 3 4 5 6 7 8 9 9 10 11 12 13 15 16 16 16 16 15 14 14 13
10 11 11 11 11 11 12 11 11 12 12 12 11 10 10 10 9 9 9 9 9 8 8 8 9 10 9 9 9 8 8 8 7 7 7 7 7 6 5 3 2 1 1 2 3 3 3 3 3 4 3 2 1 1 1 0 1 2 2 2 1 2 2 2 2 2 2 2 2 3 5 6 7 8 9 10 12 13 15 17 19 19 19 18 18 16 16
8 8 9 9 9 9 9 9 9 9 8 8 9 9 9 9 9 9 9 9 9 8 8 8 7 7 8 7 7 6 5 5 5 5 5 5 6 6 5 3 2 1 2 3 4 4 3 3 3 3 2 1 1 1 1 1 2 3 4 4 4 3 2 2 3 3 4 4 5 6 7 8 9 10 11 11 12 13 14 16 18 19 19 20 20 19 18
4 5 5 6 6 6 6 6 7 7 6 6 7 7 8 8 8 9 9 9 9 9 9 8 7 6 6 6 5 4 4 3 2 2 3 3 3 3 3 2 2 2 3 3 3 3 3 2 3 3 2 2 2 3 3 4 4 5 6 6 6 5 3 2 3 4 5 7 9 10 11 12 12 13 13 13 13 13 13 14 14 15 16 16 18 19 19
1 2 2 3 2 2 2 3 5 6 6 6 5 5 6 7 7 8 9 9 9 9 9 8 8 7 6 6 5 5 5 4 3 2 2 2 2 2 1 1 1 2 3 3 3 3 3 3 4 4 4 3 3 4 4 5 6 7 7 7 7 6 5 4 4 5 6 8 10 11 12 13 14 14 14 14 13 13 14 13 13 12 12 12 13 15 15
0 1 0 1 1 1 1 2 3 5 6 6 5 5 5 6 6 7 8 9 10 10 10 9 8 7 6 6 7 7 7 7 6 5 4 3 3 3 3 3 4 4 4 5 5 5 4 4 5 5 6 6 5 5 4 5 6 6 7 7 8 8 7 7 7 7 8 9 10 11 12 12 12 13 14 13 13 12 13 13 13 12 12 12 13 13 14
2 3 2 2 2 3 3 2 2 4 5 5 4 4 5 6 6 6 7 8 9 10 10 9 8 8 8 8 8 8 8 8 8 7 6 5 5 5 5 6 6 6 6 6 7 6 6 6 7 7 8 8 8 7 7 7 7 7 7 8 9 9 10 10 10 10 11 11 11 12 12 12 12 13 13 13 12 12 12 12 12 12 13 14 14 15 15
4 3 2 2 4 5 4 3 2 2 3 4 3 3 4 5 5 5 6 6 7 8 8 8 7 7 8 9 9 10 10 9 8 8 7 7 7 7 7 8 8 8 8 8 8 9 9 9 9 10 10 11 11 11 11 11 11 11 11 11 11 11 12 13 13 13 13 13 13 14 14 13 13 13 13 13 13 12 12 12 11 11 11 13 14 15 16
3 1 1 3 5 6 5 3 3 3 4 4 5 5 6 6 6 6 7 7 7 8 8 8 7 7 7 8 9 10 10 10 10 9 8 8 8 8 8 8 9 9 9 9 10 10 11 12 12 12 13 13 14 14 14 14 15 15 16 16 15 15 15 14 14 14 14 14 15 15 15 15 14 14 13 12 12 12 12 12 12 12 11 12 13 14 15
Wind_Direction
217 217 211 192 178 196 194 187 196 197 186 179 186 203 196 158 171 225 221 179 191 220 220 217 218 207 203 209 210 213 215 208 202 200 202 208 213 217 217 216 216 220 224 226 229 231 233 233 234 235 236 236 236 237 237 236 235 234 235 236 236 236 237 238 239 240 236 227 221 224 222 217 219 223 219 218 225 229 231 232 230 226 222 220 221 224 225
226 222 217 195 189 209 213 203 202 194 191 191 197 208 193 178 204 219 185 182 204 218 212 215 221 213 205 202 201 204 208 206 201 198 201 208 214 217 218 218 218 221 224 227 230 233 233 234 236 237 237 238 238 239 239 238 237 237 238 238 238 238 238 240 240 238 231 218 218 224 222 216 218 218 213 214 222 227 230 232 231 227 223 223 224 224 225
239 229 221 205 199 212 222 227 221 193 183 193 210 230 204 190 221 223 168 182 220 234 216 215 227 212 193 180 184 197 205 203 198 198 203 210 215 217 219 219 220 222 224 227 230 232 234 237 238 239 240 241 242 243 242 241 241 241 240 240 240 240 241 241 238 234 231 227 227 227 221 216 216 215 212 215 220 223 225 229 231 230 226 226 226 225 226
245 231 216 214 204 209 229 238 232 211 189 188 204 215 189 191 214 200 143 177 231 243 216 199 210 186 181 191 193 197 203 202 198 200 207 212 215 217 218 220 221 223 224 226 230 233 236 239 241 243 246 247 248 250 248 247 246 243 242 243 243 242 242 240 236 236 237 236 235 230 221 214 210 208 209 212 213 217 224 229 232 232 230 229 228 226 228
257 233 205 203 180 185 239 241 225 211 196 191 196 189 187 189 177 160 177 214 230 214 173 182 203 188 193 211 205 198 199 200 201 206 210 213 214 215 219 222 224 225 226 228 232 235 239 244 248 253 256 258 261 263 258 253 250 248 247 246 245 243 241 240 238 239 240 241 239 232 220 210 205 203 206 208 205 209 217 224 231 234 234 232 230 228 230
251 240 173 142 145 198 238 245 217 205 197 193 191 174 188 211 186 187 224 249 253 181 163 185 202 206 219 229 220 210 203 201 203 208 212 213 212 214 220 224 226 228 229 231 236 241 246 252 257 263 267 271 276 274 266 260 256 254 251 249 245 243 243 242 242 242 243 244 240 226 211 206 204 201 204 207 205 204 208 216 228 234 234 233 231 230 232
234 187 115 144 220 227 235 289 263 207 193 178 155 115 89 30 345 295 270 263 255 230 202 200 198 193 217 271 251 235 224 215 212 212 212 208 209 214 219 224 229 232 233 234 235 234 230 224 229 260 281 290 288 279 271 267 263 259 256 251 247 245 246 245 245 246 245 241 234 218 207 208 207 200 201 205 202 199 205 212 219 226 232 233 232 233 235
195 120 147 200 233 232 224 18 33 59 123 133 118 95 63 31 4 281 263 268 271 261 242 224 166 128 105 78 48 0 244 235 232 224 215 207 209 218 224 228 229 222 211 200 179 159 144 127 114 94 60 351 311 292 281 273 267 263 258 254 250 249 249 249 249 248 245 242 237 226 213 209 207 202 204 206 199 195 205 212 212 222 233 235 233 237 240
159 146 183 205 198 188 242 346 25 82 119 145 139 129 164 321 0 289 251 277 302 294 240 159 135 122 102 74 33 14 334 223 222 220 214 207 207 210 200 178 156 143 144 144 143 144 137 123 116 123 160 251 291 292 288 283 277 272 266 261 258 257 256 257 254 251 249 246 243 235 219 207 204 204 204 203 193 191 202 208 207 218 231 234 237 242 243
127 110 120 122 130 188 228 253 249 201 154 203 171 124 124 320 351 357 278 260 285 281 231 156 138 120 81 26 339 358 20 190 194 188 180 163 147 140 133 130 130 134 141 145 148 148 141 137 155 177 195 220 242 265 286 294 291 288 283 276 270 265 264 264 260 257 255 250 246 241 225 209 204 203 200 194 187 187 197 203 207 221 234 242 248 248 245
124 122 138 170 167 190 236 254 269 331 338 230 159 100 88 315 340 347 330 264 147 149 147 132 125 104 80 341 321 25 73 127 150 145 139 130 129 129 127 130 137 142 147 151 153 154 151 155 174 186 206 223 230 249 279 294 293 289 285 279 273 270 269 267 263 260 257 251 246 239 224 211 205 202 200 197 191 191 202 213 222 233 241 249 253 251 250
216 133 131 184 191 216 269 272 303 328 329 287 131 123 210 304 338 350 8 38 103 125 110 89 66 70 98 124 48 72 92 101 108 122 129 128 132 135 135 142 149 151 155 158 158 159 159 168 183 199 222 226 227 237 244 254 266 272 274 276 277 275 272 267 262 256 250 247 240 227 216 208 200 195 198 198 194 201 218 228 234 240 245 252 256 257 260
318 95 114 132 243 249 304 308 307 319 345 75 133 180 239 316 359 22 42 54 70 89 91 87 81 81 88 87 79 83 92 93 94 105 115 118 121 124 124 133 142 148 154 156 159 170 187 200 204 213 229 232 233 235 236 243 255 265 274 278 278 276 270 263 257 250 243 241 236 222 209 196 186 190 195 193 196 214 232 238 243 248 252 258 264 266 267
328 2 118 43 266 232 337 324 315 335 57 109 173 193 166 41 51 58 58 61 73 79 80 81 84 83 80 77 76 79 84 87 88 92 97 99 98 97 96 100 112 128 146 163 182 206 220 222 227 238 250 251 245 240 241 249 257 267 275 277 277 278 272 261 252 246 239 234 229 219 208 198 193 192 192 194 206 227 244 250 253 254 257 264 269 267 265
325 1 61 45 204 300 333 326 317 14 70 140 138 113 97 87 80 75 68 67 74 78 79 78 76 74 73 71 71 74 80 84 85 86 87 87 84 83 82 81 80 81 77 57 339 298 291 283 277 277 274 265 251 242 243 250 259 268 272 274 279 280 272 261 253 244 234 226 220 214 205 196 191 189 193 204 222 244 258 261 259 260 265 269 270 267 266
350 338 33 123 215 306 339 345 73 83 90 125 125 112 100 90 84 81 76 73 75 77 78 76 73 72 70 67 66 69 74 78 82 83 83 82 80 78 74 68 62 54 43 32 21 2 340 322 304 291 284 273 256 246 249 259 269 274 272 273 279 275 262 255 248 235 223 215 213 208 196 189 190 195 206 222 239 258 268 264 259 265 272 272 271 269 266
220 170 201 241 228 14 20 41 87 99 107 119 115 105 99 92 87 86 83 79 79 80 78 77 74 72 69 66 64 65 67 68 70 73 74 75 75 74 70 64 54 46 39 31 21 7 348 330 313 299 291 280 264 257 264 273 277 276 275 275 273 257 244 232 217 210 207 208 207 197 187 188 201 215 229 240 250 265 274 264 255 261 266 266 268 267 263
182 62 30 1 25 55 59 67 89 106 115 116 106 99 97 93 91 89 85 82 81 78 76 76 76 73 68 65 64 63 64 64 63 65 66 66 65 64 63 61 58 53 45 35 25 10 354 343 335 323 307 290 277 272 274 281 282 280 279 277 257 231 219 201 193 198 205 208 204 195 192 204 222 229 232 235 237 244 254 256 257 261 265 268 268 265 261
158 46 356 347 27 65 80 87 95 103 109 111 104 99 97 95 92 87 85 84 81 75 72 74 77 76 69 63 61 61 64 66 63 60 59 55 46 35 33 37 44 50 45 39 35 22 6 357 348 329 313 300 289 279 275 281 284 280 274 264 240 216 205 200 201 205 205 203 203 206 212 219 215 205 200 197 199 213 241 261 260 258 262 263 261 257 254
122 133 174 88 69 70 81 95 100 94 99 105 101 98 98 95 88 84 82 80 77 75 75 75 77 78 73 68 73 78 82 87 86 75 64 51 29 10 3 1 356 345 18 42 23 0 352 348 332 309 298 288 275 266 265 274 280 274 260 240 220 209 207 207 204 198 195 199 208 212 209 201 195 187 176 171 174 195 250 269 265 258 258 256 252 251 248
93 115 155 122 85 63 64 88 99 99 99 99 98 99 99 94 89 88 83 78 76 78 78 77 78 78 74 71 74 76 75 77 81 79 73 60 21 344 330 329 321 305 309 339 344 349 355 346 310 281 273 263 254 252 263 282 282 260 231 211 205 205 205 202 193 185 189 199 206 201 190 189 193 187 178 178 192 216 242 258 259 253 252 254 255 252 241
130 152 181 153 116 97 88 95 98 102 102 98 96 96 95 94 97 96 89 83 79 75 72 70 70 70 67 62 60 60 57 50 46 46 37 300 286 284 264 222 226 295 315 343 7 10 9 338 283 263 253 246 245 251 276 313 304 248 212 200 202 204 201 196 192 189 191 195 197 193 190 192 196 192 191 201 221 236 243 247 241 240 243 245 243 237 233
140 149 156 140 122 126 130 111 104 105 103 97 93 90 90 91 92 91 90 91 86 79 73 69 65 65 63 57 53 53 53 46 34 19 352 316 300 293 282 266 264 276 276 260 237 270 308 267 255 251 246 243 246 250 257 338 307 207 190 189 197 199 197 193 192 193 193 193 193 193 192 194 198 200 207 225 246 249 242 233 228 233 234 231 228 231 236
103 120 129 123 114 115 119 116 113 110 104 99 95 90 87 86 81 78 81 82 80 78 74 68 63 63 61 57 52 50 49 43 30 16 359 340 329 316 303 305 306 289 278 276 258 237 234 239 243 246 245 244 240 232 216 193 180 171 161 177 189 186 186 189 192 198 199 197 196 196 198 203 210 218 230 246 254 247 237 229 228 229 229 228 231 238 245
115 119 119 113 110 111 113 113 109 105 103 102 96 89 84 79 77 75 74 73 72 71 68 64 61 59 56 55 54 50 49 46 36 21 5 351 343 334 326 327 331 329 318 296 257 234 234 238 239 237 232 224 216 209 199 190 183 170 144 179 191 181 181 190 200 205 204 202 204 209 216 226 234 239 245 252 254 248 237 230 228 228 230 233 239 246 252
112 114 111 105 102 103 107 106 99 96 99 99 96 93 89 84 84 81 76 74 71 66 62 59 53 49 46 45 44 42 40 39 33 22 10 358 347 338 331 329 333 338 332 290 252 241 238 237 233 226 220 216 212 206 199 193 187 179 177 226 217 209 211 220 225 221 215 214 218 224 231 239 243 246 251 256 256 251 245 239 235 234 237 242 247 253 256
105 109 108 101 91 90 97 100 97 98 101 98 97 98 95 92 91 84 73 70 64 56 53 50 42 37 30 23 25 26 24 24 24 20 13 3 352 342 335 330 330 335 333 306 261 245 240 234 225 219 218 217 213 209 203 195 190 196 230 249 239 239 245 244 235 226 223 228 236 244 250 255 257 259 263 264 261 256 251 247 245 247 250 252 252 252 253
97 102 104 102 96 93 97 100 103 107 106 102 102 102 97 93 90 80 70 66 57 46 42 35 27 18 5 360 359 357 359 3 6 7 7 2 356 349 341 336 334 332 329 317 274 249 233 215 205 211 219 217 213 210 205 199 202 221 245 248 236 234 234 224 214 219 236 248 257 261 263 266 271 273 275 273 264 251 242 242 250 257 258 255 250 249 253
87 94 101 103 103 104 107 108 107 105 102 100 99 93 82 74 68 61 59 56 45 35 29 21 15 8 1 356 350 347 347 349 349 348 348 347 347 344 340 337 336 332 328 314 267 238 213 195 188 201 223 221 217 214 211 212 221 233 236 225 214 212 210 209 216 233 245 251 257 261 263 266 269 272 275 272 257 244 244 251 259 262 261 256 253 255 263
93 99 104 106 109 114 116 109 99 92 86 83 79 71 61 53 48 48 48 39 28 23 17 12 10 5 358 353 350 348 346 345 344 342 335 331 335 337 334 330 326 322 320 301 257 222 198 189 185 184 210 219 218 219 223 228 229 224 212 201 198 201 209 226 242 252 257 261 261 260 260 260 259 261 266 263 254 253 258 261 263 267 264 258 256 261 268
100 99 101 104 107 107 101 89 80 73 64 55 46 42 39 35 32 33 31 21 14 13 9 4 358 352 349 348 346 344 342 340 340 339 333 327 325 326 326 322 314 311 316 309 268 217 196 194 198 199 204 221 223 225 230 229 215 200 194 194 198 205 215 226 235 244 254 263 268 270 268 263 262 266 268 266 264 266 266 266 269 271 264 255 254 261 265
105 97 93 92 90 86 80 73 63 55 45 33 24 23 22 18 15 15 11 7 5 2 356 350 344 339 338 337 335 334 335 335 335 335 334 329 321 317 317 314 303 293 292 294 257 215 200 204 219 226 230 239 236 231 226 214 199 191 193 199 203 210 216 220 226 235 247 258 266 268 266 262 264 270 269 267 270 271 271 271 272 267 257 251 253 257 257
137 99 77 69 64 62 62 56 47 40 34 28 26 24 19 13 9 4 357 351 347 343 338 335 334 332 328 328 329 329 329 329 330 331 333 332 326 317 313 310 300 280 261 251 233 215 212 222 239 247 253 251 236 221 211 200 192 193 202 210 215 220 223 226 232 239 247 253 253 251 254 260 266 269 270 273 275 274 273 270 266 259 254 252 249 246 247
94 80 67 59 54 51 48 44 41 38 33 31 31 26 18 12 5 357 348 340 332 326 323 324 325 326 326 327 328 328 328 327 326 326 328 332 331 324 316 312 305 280 252 234 220 216 221 234 249 256 257 240 214 200 195 193 195 203 213 219 223 225 226 230 235 238 241 243 244 251 263 272 277 281 285 286 283 276 268 263 263 265 263 254 242 239 248
78 75 71 64 57 52 47 43 40 35 29 28 28 25 18 10 1 353 349 342 334 329 324 319 317 319 320 320 321 322 324 322 317 314 317 323 328 326 320 314 311 299 264 237 226 225 232 242 250 250 237 211 194 188 190 195 203 212 218 220 223 226 228 228 228 231 236 241 252 263 270 276 283 288 288 287 282 272 264 262 267 267 256 240 233 241 251
78 75 71 67 62 55 48 40 32 26 21 18 17 15 11 4 358 357 356 353 349 344 337 329 322 318 315 315 315 315 313 310 305 302 306 314 320 318 311 304 303 310 300 253 227 224 229 233 231 220 205 194 188 185 190 202 215 221 224 225 223 223 225 224 224 231 238 247 260 270 274 280 286 287 282 277 271 266 264 267 267 257 241 233 238 245 250
73 70 68 64 57 49 43 37 32 28 25 19 14 13 11 8 7 7 6 3 0 357 351 345 339 332 324 320 317 313 308 306 305 305 310 320 322 310 294 285 281 281 256 186 175 177 182 186 190 193 195 189 175 166 175 199 215 219 226 231 223 218 219 222 228 238 250 261 271 277 280 283 285 281 274 268 261 258 260 261 259 254 247 242 242 245 250
63 59 57 55 51 49 48 45 41 41 44 44 37 28 20 17 15 14 11 9 10 10 7 3 356 348 339 331 326 322 317 313 312 319 334 344 335 300 256 219 198 190 175 165 164 167 167 167 175 218 275 283 253 166 193 214 220 220 225 226 220 218 229 242 253 263 270 274 277 278 278 278 275 269 265 261 257 257 258 256 254 255 251 246 247 253 258
55 53 51 49 50 52 51 50 47 44 45 47 45 38 33 29 24 19 18 21 24 23 20 16 12 8 1 354 350 349 345 337 335 348 5 11 354 206 185 170 162 164 168 170 173 178 178 183 264 329 343 348 327 222 201 208 213 212 214 222 234 252 266 272 274 275 274 273 270 266 259 254 255 261 264 262 261 262 262 259 258 259 257 256 259 260 257
50 50 48 48 49 48 46 44 42 38 38 40 40 37 35 32 28 26 31 36 34 27 21 19 19 19 17 16 17 16 15 13 13 13 21 60 129 156 170 173 171 178 196 207 215 226 237 252 292 52 93 108 115 123 142 168 189 203 221 245 263 271 273 273 273 271 267 258 250 244 238 237 241 247 252 257 263 266 265 264 266 268 270 270 266 256 249
49 48 48 49 50 47 44 41 38 34 33 34 32 29 28 30 30 31 33 35 31 24 17 15 17 20 22 25 29 33 37 41 40 37 42 70 85 61 258 243 255 264 250 232 227 226 212 154 112 103 102 107 117 131 147 166 187 208 233 251 256 254 254 253 247 248 253 256 256 257 257 258 259 257 251 248 249 254 261 269 271 271 269 265 256 247 243
52 51 52 53 53 51 48 45 42 39 36 35 32 26 24 25 27 26 25 24 23 21 18 15 16 21 27 34 41 48 54 57 56 55 58 60 47 38 41 50 68 90 102 108 112 117 118 109 102 99 102 113 129 141 151 164 184 209 227 227 218 210 211 219 237 251 258 262 265 267 268 268 268 268 263 258 253 252 257 264 268 269 267 261 252 246 243
53 53 54 55 54 52 49 46 45 44 42 40 38 32 26 24 23 19 16 13 12 13 16 16 17 24 34 43 49 55 57 55 55 59 63 60 51 47 50 61 83 98 99 96 97 101 98 90 93 103 111 120 129 135 143 159 184 203 190 170 147 125 117 194 277 277 276 274 272 270 267 265 264 264 265 264 263 261 262 261 260 259 261 260 256 249 244
56 57 59 61 58 54 51 48 46 45 44 43 42 38 32 30 27 22 19 17 11 9 12 14 15 21 31 38 43 50 52 52 57 63 64 60 54 50 49 56 74 86 85 83 91 99 97 94 103 112 116 119 120 116 112 138 172 162 160 156 137 98 331 267 260 267 277 283 281 275 269 264 262 261 265 268 270 270 269 266 263 259 256 254 252 248 244
63 65 69 70 66 61 56 51 46 44 42 42 41 38 35 33 32 29 26 26 23 19 17 17 17 21 24 25 28 39 51 58 63 66 63 58 54 49 49 55 58 50 71 109 124 124 128 135 139 136 133 132 126 84 2 308 173 167 175 190 232 282 285 262 243 253 267 280 280 275 270 265 263 267 274 280 284 282 274 267 264 262 258 252 248 248 247
70 74 77 77 72 67 61 54 48 46 42 38 39 40 38 38 39 37 35 34 34 31 27 23 20 21 22 19 17 25 42 58 67 65 58 50 43 38 42 58 84 119 136 129 123 124 136 149 154 155 163 182 210 266 277 238 214 219 234 246 259 271 275 258 248 254 258 262 267 271 273 271 272 276 281 289 297 297 287 273 265 264 262 256 249 246 247
72 81 87 85 77 68 58 45 39 38 36 34 39 43 42 40 40 39 37 35 30 25 22 20 15 10 9 9 11 14 18 25 42 55 48 37 28 25 32 56 93 129 142 138 131 136 150 166 175 184 196 212 225 237 245 244 241 246 252 255 257 259 258 256 262 264 265 268 273 276 278 280 283 286 288 292 299 304 300 289 277 269 265 258 249 244 245
87 97 108 114 106 74 39 21 15 15 16 20 30 38 39 37 32 27 24 24 21 17 14 13 12 9 2 356 356 360 358 351 344 342 341 341 337 329 319 276 199 184 182 184 187 189 195 201 202 203 208 215 223 235 244 249 251 253 256 258 259 256 257 271 284 281 275 275 278 281 284 287 289 288 287 291 298 302 301 296 285 273 264 256 249 246 249
64 302 302 193 204 242 299 344 359 2 4 13 29 38 34 30 27 22 17 15 17 17 14 11 10 12 9 360 353 349 344 339 334 326 315 302 294 289 282 267 245 228 220 219 219 221 223 225 225 224 223 221 223 231 245 257 263 264 266 268 267 265 268 279 289 291 287 285 285 286 288 290 290 287 286 292 299 303 301 296 287 275 265 257 250 249 251
0 331 327 314 282 279 287 308 351 3 4 12 29 35 23 19 23 25 18 12 13 16 17 15 12 8 2 357 355 351 343 335 329 322 315 307 296 288 283 276 268 258 249 240 236 237 242 245 246 245 242 239 239 242 250 261 271 277 279 281 280 279 279 280 283 286 288 289 289 290 291 293 292 292 294 297 300 302 302 300 291 279 268 261 256 253 253
12 2 351 341 328 316 307 307 318 337 348 357 2 357 350 351 357 5 6 4 2 3 5 6 6 3 357 350 347 346 343 337 328 317 310 304 299 291 285 279 276 275 270 259 248 243 244 246 248 251 252 252 251 251 254 259 265 270 273 277 281 282 283 281 280 282 286 290 290 291 292 293 292 292 295 297 298 299 302 304 301 291 279 270 265 260 258
19 29 347 330 324 315 303 295 294 296 301 306 311 316 322 329 335 343 347 346 341 339 338 333 329 333 337 334 330 329 330 327 322 314 306 301 297 293 287 281 279 280 279 273 263 253 247 245 246 250 254 257 259 261 263 265 267 269 271 274 276 278 281 282 282 283 285 288 288 289 290 289 287 286 287 290 294 295 297 300 304 305 300 289 276 267 262